This is the latest recevied weather packets stored in our database for station/object K4IR. If no packets are shown the sender has not sent any weather packets the latest 10 day(s).
| Time | Temp. | Humidity | Pressure | Rain* | Wind** | Luminosity | Snow |
|---|---|---|---|---|---|---|---|
| 1788419222 | 22.78° C | 98% | 1017.2 hPa | 0 mm | - | 0 W/m² | - |
| 1788418619 | 22.78° C | 98% | 1017.4 hPa | 0 mm | - | 0 W/m² | - |
| 1788418017 | 23.33° C | 98% | 1017.3 hPa | 0 mm | - | 0 W/m² | - |
| 1788417415 | 23.33° C | 98% | 1017.2 hPa | 0 mm | - | 0 W/m² | - |
| 1788416811 | 23.33° C | 98% | 1017.1 hPa | 0 mm | - | 0 W/m² | - |
| 1788416207 | 23.33° C | 98% | 1017.6 hPa | 0 mm | - | 0 W/m² | - |
| 1788415608 | 23.33° C | 98% | 1017.8 hPa | 0 mm | - | 0 W/m² | - |
| 1788415006 | 23.33° C | 98% | 1017.8 hPa | 0 mm | - | 0 W/m² | - |
| 1788414405 | 23.33° C | 98% | 1017.7 hPa | 0 mm | - | 0 W/m² | - |
| 1788413803 | 23.89° C | 98% | 1017.6 hPa | 0 mm | - | 0 W/m² | - |
| 1788413199 | 23.89° C | 97% | 1017.8 hPa | 0 mm | - | 0 W/m² | - |
| 1788412595 | 23.89° C | 97% | 1017.8 hPa | 0 mm | - | 0 W/m² | - |
| 1788411991 | 23.89° C | 97% | 1017.7 hPa | 0 mm | - | 0 W/m² | - |
| 1788411391 | 23.89° C | 97% | 1017.6 hPa | 0 mm | - | 0 W/m² | - |
| 1788410789 | 23.89° C | 97% | 1017.7 hPa | 0 mm | - | 0 W/m² | - |
| 1788410187 | 23.89° C | 97% | 1017.6 hPa | 0 mm | - | 0 W/m² | - |
| 1788409586 | 24.44° C | 97% | 1017.8 hPa | 0 mm | - | 0 W/m² | - |
| 1788408984 | 24.44° C | 97% | 1017.5 hPa | 0 mm | - | 0 W/m² | - |
| 1788408384 | 24.44° C | 97% | 1017.5 hPa | 0 mm | - | 0 W/m² | - |
| 1788407781 | 24.44° C | 97% | 1017.4 hPa | 0 mm | - | 0 W/m² | - |
| 1788407178 | 24.44° C | 96% | 1017.4 hPa | 0 mm | - | 0 W/m² | - |
| 1788406574 | 25° C | 96% | 1017.5 hPa | 0 mm | - | 0 W/m² | - |
| 1788405970 | 25° C | 96% | 1017.6 hPa | 0 mm | - | 0 W/m² | - |
| 1788405366 | 24.44° C | 96% | 1017.6 hPa | 0 mm | - | 0 W/m² | - |
| 1788404762 | 25° C | 96% | 1017.5 hPa | 0 mm | - | 0 W/m² | - |
* Rain latest hour (hover to see other rain measurements)
** Current wind speed in m/s (hover to see current wind gust speed)